OBJECT H, 51831

Orbit data source: Space-Track

You're viewing an Uncataloged Satellite

Recently launched and/or uncataloged satellites may have evolving metadata. Metadata may include but not limited to: Owner, Maufacturer, Bus, Motor, and Mission.

OBJECT H, 51831 is a satellite owned by Changguang WJ (CN) in SSO that was launched on Sun, 27 Feb 2022 UTC via a CHANG ZHENG 8 launch vehicle from the Wenchang Satellite Launch Center (WSC). Unknown objects in Earth's orbit typically refer to objects detected orbiting the Earth but have not yet been identified or cataloged. These objects could be anything from previously untracked satellites, spent rocket stages, debris from satellite collisions, or even natural meteoroids temporarily captured by Earth's gravity.

Loading next visibility...
Identifier
51831, 2022-019H
Orbit
SSO
Last TLE update
6 hours ago
Origin
Manufacturer
Changguang WJ
Mission
Operational Commercial Imaging
Bus & Motor
JL-1, Unknown motor
Mass
43 kg wet, 43 kg dry
Launch date (UTC)
2022-02-27 (3 years ago)
Launch vehicle
CHANG ZHENG 8
Launch site
Wenchang Satellite Launch Center (WSC)
Object type
Unknown
Shape & HBR
Box + 2 Pan, 1.5 m
Radar Cross Section
2.000 m², Medium (>0.1 m² and < 1m²)

Expand to show TLE details & history

TLE from 6 hours ago
0 OBJECT H
1 51831U 22019H   25182.51513177  .00019490  00000-0  45236-3 0  9996
2 51831  97.3963 262.6245 0007945 322.0836  37.9851 15.42387701185446
Epoch: 2025-07-01T12:21Z
TLE epoch observation values (Epoch: 2025-07-01T12:21:47.384Z)
Latitude
-0.00005°
Longitude
157.36759°
Altitude
437.917 km
Speed
7.651 km/s
True Right ascension
17h 30m 29s
True Declination
0° 00' 00"
Sunlit
Object was in full shadow at epoch
Visualization orbit readout
Latitude
-48.05559°
Longitude
-30.65247°
Altitude
457.993 km
Speed
7.636 km/s
Apparent Right ascension
21h 59m 42s
Apparent Declination
-84° 09' 01"
Sunlit
Object is in daylight
Visualization observer readout
Local Sidereal Time
05:41:00
Azimuth
187.144° SSW
Elevation
-42.203°
Doppler factor
1
Orbital elements
Apogee altitude
441.414 km
Perigee altitude
430.586 km
Semi-major axis
6,814.137 km
Eccentricity
0.00079
Inclination
97.3963°
RAAN
262.6245°
Arg. of periapsis
322.0836°
True anomaly
Unknown
Mean anomaly
37.9851°
Eccentric anomaly
Unknown
Mean motion
3.85857 °/min
Orbital period
93.3 mins
BSTAR
0.00045236
Loading maneuver chart data...
Loading SW <> Apogee altitude chart data...
Loading historical data...
Loading historical data...
Loading historical data...
Loading historical data...
Loading historical data...
Loading historical data...
Loading historical data...

OBJECT H Visibility forecast

Observer location: undefined°, undefined°

Span
Click to sort rows by Start time (UTC) header in descending order
Start Az.
Max El. time (UTC)
Max El. Az.
Max El.
End time (UTC)
End Az.
4 mins2025-07-02 05:38:18.826Z193.17° SSW2025-07-02 05:39:18.826Z226.165° WSW37.945°2025-07-02 05:42:18.826Z336.589° NNW
|